Location: Amanico Ergina Village
(37.7824°N, 122.4366°W)
Time: 21:40:23
(UTC+00:00)

Meteor 2-19 Rocket - Pass Details

Date: 29 October 2020
Orbit: 936 x 959 km, 82.5° (Epoch: 24 November)

Event Time Altitude Azimuth Distance (km) Brightness Sun altitude
Rises 13:39:09 0° 191° (S) 3,603 7.5 -11.1°
Reaches altitude 10° 13:41:39 10° 193° (SSW) 2,659 6.8 -10.7°
Maximum altitude 13:47:43 73° 278° (W) 988 4.4 -9.5°
Drops below altitude 10° 13:53:47 10° 3° (N) 2,660 6.7 -8.3°
Sets 13:56:17 0° 6° (N) 3,606 7.4 -7.8°
